Location: Tauranga
(37.6860°S, 176.1670°E)
Time: 21:08:10
(UTC+12:00)

Cosmos 1707 Rocket - Pass Details

Date: 24 January 2019
Orbit: 606 x 631 km, 82.5° (Epoch: 19 April)

Event Time Altitude Azimuth Distance (km) Brightness Sun altitude
Exits shadow 22:55:30 75° 63° (ENE) 639 3.4 -22.8°
Maximum altitude 22:55:38 76° 85° (E) 637 3.4 -22.8°
Drops below altitude 10° 23:00:02 10° 170° (S) 1,990 6.7 -23.4°
Sets 23:02:17 0° 171° (S) 2,905 7.6 -23.7°
